When you browse on this site, cookies collect data to enhance your experience and personalize the content and advertising you see.
Visit our Privacy Policy to learn more. By continuing to use the site, you agree to this use of cookies and data.

Hourly Weather Basse Santa Su

Today, 6 July, Monday

Time Temperature Precipitation Wind Pressure Humidity
00:00 +29°C° 0 mm 3 mps 757 mmHg 77%
01:00 +29°C° 0 mm 3 mps 756 mmHg 78%
02:00 +28°C° 0 mm 3 mps 756 mmHg 80%
03:00 +28°C° 0 mm 2 mps 756 mmHg 82%
04:00 +28°C° 0 mm 2 mps 756 mmHg 83%
05:00 +28°C° 0 mm 2 mps 756 mmHg 84%
06:00 +29°C° 0 mm 2 mps 757 mmHg 80%
07:00 +29°C° 0 mm 2 mps 757 mmHg 76%
08:00 +30°C° 0 mm 2 mps 757 mmHg 73%
09:00 +32°C° 0 mm 2 mps 757 mmHg 67%
10:00 +34°C° 0 mm 3 mps 757 mmHg 62%
11:00 +35°C° 0 mm 3 mps 757 mmHg 56%
12:00 +36°C° 0 mm 2 mps 756 mmHg 52%
13:00 +37°C° 0 mm 2 mps 755 mmHg 48%
14:00 +38°C° 0 mm 2 mps 754 mmHg 44%
15:00 +37°C° 0 mm 1 mps 754 mmHg 44%
16:00 +37°C° 0 mm 1 mps 754 mmHg 44%
17:00 +36°C° 0 mm 1 mps 754 mmHg 44%
18:00 +36°C° 0.5 mm 2 mps 755 mmHg 53%
19:00 +34°C° 0.5 mm 3 mps 755 mmHg 61%
20:00 +32°C° 0.5 mm 4 mps 756 mmHg 69%
21:00 +30°C° 0.9 mm 4 mps 756 mmHg 74%
22:00 +29°C° 0.9 mm 3 mps 757 mmHg 78%
23:00 +28°C° 0.9 mm 3 mps 758 mmHg 83%

Tomorrow, 7 July, Tuesday

Time Temperature Precipitation Wind Pressure Humidity
00:00 +28°C° 4.8 mm 3 mps 757 mmHg 86%
01:00 +27°C° 4.8 mm 3 mps 757 mmHg 88%
02:00 +27°C° 4.8 mm 2 mps 756 mmHg 91%
03:00 +27°C° 1 mm 2 mps 757 mmHg 90%
04:00 +27°C° 1 mm 2 mps 757 mmHg 89%
05:00 +27°C° 1 mm 2 mps 757 mmHg 89%
06:00 +27°C° 0 mm 2 mps 757 mmHg 88%
07:00 +27°C° 0 mm 2 mps 757 mmHg 88%
08:00 +27°C° 0 mm 2 mps 757 mmHg 87%
09:00 +29°C° 0 mm 1 mps 757 mmHg 80%
10:00 +30°C° 0 mm 1 mps 757 mmHg 74%
11:00 +31°C° 0 mm 1 mps 757 mmHg 67%
12:00 +33°C° 0 mm 1 mps 756 mmHg 61%
13:00 +34°C° 0 mm 1 mps 756 mmHg 55%
14:00 +36°C° 0 mm 1 mps 755 mmHg 50%
15:00 +35°C° 0 mm 1 mps 755 mmHg 52%
16:00 +35°C° 0 mm 1 mps 755 mmHg 54%
17:00 +34°C° 0 mm 1 mps 755 mmHg 56%
18:00 +34°C° 0 mm 2 mps 755 mmHg 60%
19:00 +32°C° 0 mm 2 mps 756 mmHg 64%
20:00 +31°C° 0 mm 3 mps 756 mmHg 67%
21:00 +30°C° 0.3 mm 2 mps 756 mmHg 70%
22:00 +30°C° 0.3 mm 2 mps 757 mmHg 73%
23:00 +29°C° 0.3 mm 2 mps 757 mmHg 76%

Day after tomorrow, 8 July, Wednesday

Time Temperature Precipitation Wind Pressure Humidity
00:00 +28°C° 0.4 mm 2 mps 756 mmHg 78%
01:00 +28°C° 0.4 mm 3 mps 756 mmHg 79%
02:00 +28°C° 0.4 mm 3 mps 756 mmHg 81%
03:00 +27°C° 0 mm 3 mps 756 mmHg 82%
04:00 +27°C° 0 mm 2 mps 755 mmHg 83%
05:00 +27°C° 0 mm 2 mps 755 mmHg 84%
06:00 +28°C° 0 mm 2 mps 756 mmHg 81%
07:00 +29°C° 0 mm 2 mps 756 mmHg 77%
08:00 +30°C° 0 mm 2 mps 757 mmHg 74%
09:00 +33°C° 0 mm 3 mps 757 mmHg 67%
10:00 +34°C° 0 mm 3 mps 757 mmHg 59%
11:00 +36°C° 0 mm 3 mps 756 mmHg 52%
12:00 +37°C° 0 mm 3 mps 755 mmHg 49%
13:00 +38°C° 0 mm 3 mps 755 mmHg 45%
14:00 +39°C° 0 mm 3 mps 754 mmHg 42%
15:00 +39°C° 0 mm 3 mps 753 mmHg 42%
16:00 +39°C° 0 mm 3 mps 753 mmHg 42%
17:00 +39°C° 0 mm 3 mps 753 mmHg 43%
18:00 +37°C° 0 mm 3 mps 753 mmHg 47%
19:00 +36°C° 0 mm 2 mps 754 mmHg 51%
20:00 +34°C° 0 mm 2 mps 754 mmHg 55%
21:00 +34°C° 0 mm 2 mps 755 mmHg 58%
22:00 +33°C° 0 mm 3 mps 755 mmHg 61%
23:00 +31°C° 0 mm 3 mps 755 mmHg 63%

9 July, Thursday

Time Temperature Precipitation Wind Pressure Humidity
00:00 +30°C° 0 mm 3 mps 755 mmHg 66%
01:00 +30°C° 0 mm 4 mps 754 mmHg 69%
02:00 +29°C° 0 mm 4 mps 754 mmHg 72%
03:00 +28°C° 0 mm 3 mps 754 mmHg 75%
04:00 +28°C° 0 mm 3 mps 755 mmHg 77%
05:00 +27°C° 0 mm 3 mps 755 mmHg 80%
06:00 +28°C° 0 mm 3 mps 755 mmHg 78%
07:00 +29°C° 0 mm 3 mps 756 mmHg 75%
08:00 +29°C° 0 mm 4 mps 756 mmHg 73%
09:00 +32°C° 0 mm 4 mps 756 mmHg 64%
10:00 +35°C° 0 mm 4 mps 756 mmHg 54%
11:00 +37°C° 0 mm 4 mps 755 mmHg 45%
12:00 +38°C° 0 mm 4 mps 755 mmHg 42%
13:00 +40°C° 0 mm 5 mps 754 mmHg 39%
14:00 +41°C° 0 mm 5 mps 753 mmHg 37%
15:00 +40°C° 0 mm 4 mps 753 mmHg 38%
16:00 +40°C° 0 mm 4 mps 753 mmHg 39%
17:00 +40°C° 0 mm 4 mps 753 mmHg 40%
18:00 +37°C° 0 mm 4 mps 754 mmHg 45%
19:00 +36°C° 0 mm 3 mps 754 mmHg 50%
20:00 +34°C° 0 mm 3 mps 755 mmHg 55%
21:00 +33°C° 0 mm 3 mps 755 mmHg 59%
22:00 +31°C° 0 mm 3 mps 756 mmHg 63%
23:00 +30°C° 0 mm 3 mps 756 mmHg 66%

10 July, Friday

Time Temperature Precipitation Wind Pressure Humidity
00:00 +30°C° 0 mm 3 mps 756 mmHg 70%
01:00 +29°C° 0 mm 3 mps 755 mmHg 73%
02:00 +28°C° 0 mm 3 mps 755 mmHg 77%
03:00 +28°C° 0 mm 3 mps 755 mmHg 78%
04:00 +28°C° 0 mm 2 mps 756 mmHg 79%
05:00 +28°C° 0 mm 2 mps 756 mmHg 80%
06:00 +29°C° 0 mm 2 mps 756 mmHg 74%
07:00 +30°C° 0 mm 2 mps 757 mmHg 69%
08:00 +31°C° 0 mm 2 mps 757 mmHg 63%
09:00 +34°C° 0 mm 2 mps 757 mmHg 57%
10:00 +35°C° 0 mm 3 mps 756 mmHg 51%
11:00 +37°C° 0 mm 3 mps 756 mmHg 45%
12:00 +37°C° 0 mm 3 mps 755 mmHg 44%
13:00 +37°C° 0 mm 2 mps 754 mmHg 43%
14:00 +37°C° 0 mm 2 mps 754 mmHg 42%
15:00 +38°C° 0 mm 2 mps 754 mmHg 42%
16:00 +38°C° 0 mm 2 mps 753 mmHg 42%
17:00 +38°C° 0 mm 2 mps 753 mmHg 42%
18:00 +36°C° 0.9 mm 2 mps 754 mmHg 51%
19:00 +34°C° 0.9 mm 3 mps 755 mmHg 59%
20:00 +31°C° 0.9 mm 3 mps 756 mmHg 68%
21:00 +30°C° 0.5 mm 3 mps 756 mmHg 71%
22:00 +30°C° 0.5 mm 3 mps 756 mmHg 75%
23:00 +29°C° 0.5 mm 3 mps 757 mmHg 78%

11 July, Saturday

Time Temperature Precipitation Wind Pressure Humidity
00:00 +29°C° 0.2 mm 2 mps 756 mmHg 80%
01:00 +28°C° 0.2 mm 2 mps 756 mmHg 82%
02:00 +28°C° 0.2 mm 2 mps 756 mmHg 83%
03:00 +28°C° 0 mm 2 mps 756 mmHg 84%
04:00 +27°C° 0 mm 2 mps 756 mmHg 85%
05:00 +27°C° 0 mm 2 mps 756 mmHg 86%
06:00 +28°C° 0 mm 2 mps 756 mmHg 82%
07:00 +29°C° 0 mm 2 mps 756 mmHg 79%
08:00 +29°C° 0 mm 2 mps 757 mmHg 75%
09:00 +31°C° 0 mm 2 mps 756 mmHg 69%
10:00 +32°C° 0 mm 2 mps 756 mmHg 63%
11:00 +34°C° 0 mm 2 mps 756 mmHg 56%
12:00 +35°C° 0 mm 2 mps 755 mmHg 54%
13:00 +35°C° 0 mm 2 mps 755 mmHg 53%
14:00 +36°C° 0 mm 2 mps 754 mmHg 51%
15:00 +35°C° 0.4 mm 2 mps 754 mmHg 54%
16:00 +34°C° 0.4 mm 2 mps 754 mmHg 57%
17:00 +34°C° 0.4 mm 2 mps 754 mmHg 61%
18:00 +31°C° 0.7 mm 3 mps 755 mmHg 66%
19:00 +30°C° 0.7 mm 3 mps 755 mmHg 72%
20:00 +29°C° 0.7 mm 3 mps 756 mmHg 77%
21:00 +28°C° 0.5 mm 3 mps 756 mmHg 80%
22:00 +28°C° 0.5 mm 4 mps 757 mmHg 83%
23:00 +27°C° 0.5 mm 4 mps 757 mmHg 86%
Show more